Location: *
(49.6619°S, 177.4603°W)
Time: 04:29:54
(UTC+00:00)

Daily predictions for brighter satellites

Satellite Brightness Start Highest point End
(mag) Time Altitude Azimuth Time Altitude Azimuth Time Altitude Azimuth
Cosmos 1745 Rocket 4.1 08:01:20 10° NNE 08:07:19 56° E 08:13:23 10° SSE
Cosmos 2219 3.7 08:01:51 10° NW 08:07:32 70° WSW 08:13:21 10° SSE
USA 306 3.2 08:04:55 10° WNW 08:08:56 68° SSW 08:12:58 10° ESE
Cosmos 1900 4.4 08:04:24 10° NNW 08:09:20 66° ENE 08:14:23 10° SE
Cosmos 1603 4.3 08:04:06 10° SSW 08:09:34 46° SE 08:14:58 10° NE
SJ-6B 2.7 08:11:14 10° SSE 08:15:01 60° ENE 08:18:42 10° N
Cosmos 1867 4.2 08:10:19 10° N 08:15:07 33° ENE 08:19:57 10° SE
USA 267 4.2 08:11:26 10° ESE 08:17:43 48° S 08:24:02 10° WSW
Aureole 1 Rocket 3.6 08:16:46 10° SW 08:19:42 38° WNW 08:22:57 10° N
USA 308 3.1 08:18:01 10° WNW 08:22:02 68° SSW 08:26:04 10° ESE
Cosmos 1709 Rocket 4.3 08:20:24 10° NNE 08:26:20 50° E 08:32:23 10° SSE
Cosmos 2263 Rocket 2.2 08:20:55 10° NNW 08:26:30 68° ENE 08:32:11 10° SSE
Cosmos 1076 Rocket 3.6 08:28:47 10° S 08:33:10 88° W 08:37:31 10° N
SeaSat 1 3.7 08:33:54 10° N 08:38:28 37° WNW 08:43:07 10° SW
Cosmos 1315 Rocket 3.7 08:34:58 10° SSW 08:39:03 51° W 08:43:04 10° N
IRS-1C Rocket 4.4 08:33:54 10° SSE 08:39:07 48° E 08:44:15 10° N
SJ 16-02 4.0 08:36:45 10° SW 08:39:37 17° W 08:42:26 10° NW
CZ-2C R/B 3.7 08:35:47 10° NNE 08:40:18 84° ESE 08:44:50 10° SSW
Cosmos 2082 4.2 08:36:00 10° NW 08:41:40 67° WSW 08:47:27 10° SSE
Timation 2 Rocket 4.3 08:35:20 10° N 08:42:02 57° ENE 08:48:48 10° SE
Resurs 1-3 3.6 08:41:00 10° SSE 08:45:30 85° ENE 08:49:57 10° NNW
H-2A R/B 3.9 08:42:24 10° SE 08:45:47 21° E 08:48:07 14° NE
USA 186 2.9 08:46:07 10° S 08:49:20 48° WSW 08:52:33 10° NNW
Cosmos 468 Rocket 4.3 08:45:04 10° N 08:49:58 45° ENE 08:54:57 10° SE
Terra 3.9 08:49:31 10° ESE 08:50:07 10° E 08:50:45 10° E
CSL-04 Debris 4.3 08:46:06 10° SSE 08:51:43 90° WSW 08:57:15 10° NNW
Ariane Rocket 4.2 08:49:53 10° SE 08:53:59 24° E 08:56:48 15° NE
IRAS Rocket 4.5 08:49:32 13° NE 08:54:36 63° ESE 09:00:14 10° SSW
FALCON 9 DEB 3.5 08:52:28 10° W 08:55:22 53° SSW 08:58:16 10° ESE
SL-8 R/B 4.5 08:52:31 10° NNW 08:56:43 31° NNE 09:00:58 10° E
SL-16 R/B 4.2 08:52:18 10° SW 08:56:46 24° WNW 09:01:12 10° NNW
CZ-4B R/B 1.2 08:54:22 13° N 08:56:47 66° WNW 08:59:38 10° SSW
CENTAUR R/B 4.2 08:54:09 10° WSW 08:57:47 19° WNW 09:01:12 10° NNW
NOSS 3-4 (A) 4.2 08:49:25 10° NNW 08:57:52 65° NE 09:05:46 10° SE
NOSS 3-4 (C) 4.2 08:49:32 10° NNW 08:57:58 65° NE 09:05:51 10° SE
Cosmos 1844 Rocket 3.6 08:54:26 11° NNE 08:58:53 29° ENE 09:03:42 10° SE
Cosmos 2227 4.2 08:53:27 10° NNW 08:59:07 67° ENE 09:04:48 10° SSE
Cosmos 1812 Rocket 3.6 08:55:20 10° N 08:59:41 61° E 09:04:04 10° SSE
Cosmos 1606 2.9 08:56:55 10° NNW 09:00:44 76° W 09:04:36 10° S
CSL-04 Rocket 3.7 08:55:57 10° SSE 09:01:25 84° WSW 09:06:46 10° NNW
Cosmos-2242 3.1 08:59:17 10° N 09:03:34 63° E 09:07:57 10° SSE
Cosmos 1500 4.1 09:04:57 10° S 09:08:30 34° ESE 09:10:28 21° NE
Resurs 01 Rocket 1.6 09:07:14 10° SSE 09:11:45 73° ENE 09:16:11 10° N
Cosmos 1943 3.7 09:06:27 10° SW 09:12:05 58° WNW 09:17:00 14° N
Cosmos 1763 Rocket 3.4 09:07:47 10° NNW 09:12:53 82° ENE 09:18:04 10° SSE
USA 305 3.9 09:09:27 10° W 09:13:21 45° S 09:17:18 10° ESE
Cosmos 1340 4.3 09:13:20 10° NW 09:16:49 35° WSW 09:20:20 10° S
Cosmos 990 Rocket 4.5 09:11:55 10° SSW 09:17:07 58° WNW 09:21:27 14° N
Cosmos 1937 Rocket 3.6 09:13:28 10° SSW 09:18:51 71° ESE 09:22:29 21° NE
RESURS DK-1 4.1 09:19:33 16° E 09:19:33 16° E 09:21:59 10° ESE
USA 307 3.8 09:17:16 10° W 09:21:11 47° S 09:25:06 10° ESE
Cosmos 2084 Rocket 4.3 09:16:37 10° SW 09:21:21 49° NW 09:24:26 20° NNE
Cosmos 1346 Rocket 4.2 09:20:44 20° ENE 09:21:41 22° E 09:24:48 10° SE
CZ-4C R/B 2.8 09:16:00 10° SW 09:21:49 47° SE 09:25:32 16° ENE
Cosmos 841 Rocket 3.9 09:18:55 17° NNE 09:22:34 41° ENE 09:27:27 10° SE
SPOT 1/Viking Rocket 3.6 09:17:37 10° SSE 09:22:58 90° ENE 09:28:13 10° NNW
USA 215 3.8 09:18:00 10° ESE 09:23:53 33° NE 09:29:44 10° NNW
CARTOSAT-1 3.5 09:24:20 10° SSE 09:28:44 69° ENE 09:31:59 17° N
Cosmos 1833 Rocket 4.4 09:24:15 10° SSW 09:28:50 24° SE 09:33:23 10° E
BREEZE-M DEB (TANK) 2.6 09:30:08 10° W 09:31:59 29° NNW 09:32:16 28° N
Cosmos 1933 4.4 09:34:50 26° ENE 09:35:54 29° E 09:39:30 10° SSE
Cosmos 1898 Rocket 3.8 09:31:11 10° SSW 09:36:30 66° WNW 09:40:00 21° N
Meteor 1-4 Rocket 3.0 09:33:23 10° S 09:36:42 42° ESE 09:37:42 32° ENE
Cosmos 540 Rocket 3.4 09:31:59 10° NNW 09:37:08 86° ENE 09:42:20 10° SSE
Cosmos 2181 Rocket 4.3 09:30:40 10° SSW 09:37:12 74° W 09:42:36 16° N
ERS-1 Rocket 3.8 09:33:37 10° SSE 09:38:13 32° E 09:40:02 25° NE
Okean-O 4.1 09:34:21 10° S 09:38:32 39° WSW 09:42:42 10° NW
Meteor 2-2 Rocket 4.3 09:34:56 15° N 09:39:55 73° E 09:46:01 10° SSE
ATLAS 3B R/B 3.8 09:35:09 10° SW 09:41:16 36° SSE 09:47:07 10° E
USA 306 3.9 09:44:14 10° WSW 09:48:07 44° S 09:52:00 10° ESE
Cosmos 1766 Rocket 3.6 09:44:19 10° S 09:48:55 82° E 09:51:07 30° NNE
Nadezhda 3 Rocket 4.2 09:42:47 10° S 09:49:09 65° ESE 09:52:54 26° NNE
Cosmos 371 Rocket 3.2 09:45:35 10° SSW 09:50:30 86° ESE 09:52:51 31° NNE
MetOp-A 3.9 09:50:02 10° S 09:54:31 66° WSW 09:57:54 15° NNW
Cosmos 1867 4.4 09:53:14 10° WNW 09:58:32 54° SW 10:03:52 10° SE
Cosmos 1408 Rocket 4.2 09:54:50 10° S 09:59:13 44° ESE 10:00:45 32° ENE
USA 267 3.4 09:54:46 15° ENE 10:00:19 73° SSE 10:06:55 10° WSW
USA 308 3.9 09:57:18 10° WSW 10:01:11 44° S 10:05:04 10° ESE
Magion-5 4.0 09:56:10 10° NW 10:03:19 89° NE 10:08:41 10° SE
SAR-Lupe-4 4.3 10:03:21 36° ENE 10:04:07 41° ESE 10:07:35 10° S
Cosmos 1666 2.6 10:01:07 10° S 10:04:59 85° W 10:06:09 44° N
Geosat FO 4.4 10:05:45 10° SSE 10:09:09 81° WSW 10:10:32 33° NW
Cosmos 2263 Rocket 4.3 10:06:05 10° WNW 10:10:56 28° SW 10:15:51 10° SSE
SPOT 5 3.1 10:09:26 10° SSE 10:14:52 83° ENE 10:17:52 28° N
SPOT 3 Rocket 3.5 10:09:47 10° SSE 10:15:06 79° ENE 10:17:48 30° N
Cosmos 2221 2.5 10:17:09 35° NNW 10:19:01 84° W 10:23:30 10° S
Cosmos 2184 Rocket 4.2 10:15:15 18° NNW 10:20:04 70° WSW 10:26:21 10° S
H-2A R/B 3.5 10:17:06 10° S 10:21:22 47° WSW 10:24:30 16° NW
Cosmos 1500 Rocket 4.0 10:18:26 10° S 10:22:44 49° ESE 10:23:47 40° ENE
SWAS 4.5 10:20:37 10° SW 10:24:54 70° WNW 10:25:56 49° N
Cosmos 1782 2.7 10:24:12 50° N 10:25:12 89° ENE 10:29:15 10° S
ADEOS Rocket 3.7 10:17:37 10° SSE 10:25:15 53° E 10:28:43 31° NNE
Cosmos 2074 Rocket 4.4 10:22:21 15° NNW 10:27:33 61° WSW 10:33:51 10° S
ARIANE 5 R/B 3.5 10:24:12 10° SSE 10:28:20 34° E 10:28:44 33° ENE
Terra 1.8 10:23:47 10° SSE 10:28:37 74° ENE 10:30:15 41° N
ATLAS 2AS CENTAUR R/B 2.8 10:27:15 31° N 10:30:05 50° ENE 10:36:35 10° SE
FALCON 9 DEB 3.9 10:27:49 10° WSW 10:30:39 42° S 10:31:16 36° SE
Cosmos 2154 Rocket 4.1 10:26:53 23° NNW 10:31:00 76° W 10:37:20 10° S
Ariane Rocket 3.6 10:28:14 10° S 10:33:16 55° WSW 10:36:58 18° NW
Cosmos 1441 Rocket 3.5 10:33:26 42° NW 10:34:33 65° WSW 10:38:24 10° S
Cosmos 1125 Rocket 3.9 10:30:00 10° SSW 10:35:13 55° ESE 10:37:12 35° ENE
Cosmos 1544 3.8 10:32:50 10° SSW 10:36:11 40° W 10:36:46 37° WNW
Helios 1A Rocket 4.3 10:33:52 10° SE 10:36:53 24° E 10:36:53 24° E
deb Chang Zheng 4 4.3 10:33:41 10° S 10:37:34 46° WSW 10:39:37 24° NW
SL-8 R/B 3.6 10:33:59 10° WNW 10:38:49 68° NNE 10:43:39 10° E
Meteor 1-14 Rocket 4.3 10:33:14 10° S 10:38:51 65° ESE 10:40:55 39° NE
Cosmos 1812 3.2 10:40:30 40° NW 10:41:34 55° WSW 10:45:23 10° S
Cosmos 1844 Rocket 3.3 10:36:55 10° NW 10:42:28 56° SW 10:48:07 10° SSE
Resurs 1-4 Rocket 4.3 10:39:44 10° E 10:43:00 17° SE 10:46:16 10° SSE
Meteor 1-26 Rocket 4.2 10:41:27 34° N 10:44:06 90° NE 10:50:07 10° SSE
Cosmos 1814 Rocket 4.0 10:43:35 32° NNW 10:46:06 86° WSW 10:51:25 10° SSE
Resurs 01 Rocket 4.3 10:44:51 10° SSW 10:47:41 17° WSW 10:50:30 10° W
Cosmos 1844 4.2 10:42:16 10° NW 10:47:48 59° WSW 10:53:23 10° SSE
Spot 2 Rocket 3.7 10:42:49 10° S 10:47:57 69° WSW 10:50:27 30° NNW
Cosmos 962 Rocket 4.4 10:45:13 36° N 10:47:58 82° E 10:54:20 10° S
PSLV R/B 3.6 10:47:17 53° NNE 10:48:22 89° E 10:52:55 10° SSW
Cosmos 2208 Rocket 4.3 10:48:15 44° NNE 10:49:29 54° ENE 10:54:50 10° SSE
Cosmos 2082 Rocket 3.5 10:45:54 10° SSW 10:51:04 34° SE 10:54:34 18° ENE
USA 305 3.3 10:48:19 10° WSW 10:52:21 58° SSE 10:54:10 30° E
Cosmos 332 Rocket 4.1 10:48:10 10° SSW 10:52:58 58° WNW 10:54:08 45° NNW
CZ-2D R/B 4.1 10:51:55 11° E 10:55:06 19° SE 10:58:43 10° SSE
RESURS DK-1 2.7 10:55:18 36° NW 10:56:50 64° WSW 11:01:02 10° SSE
Cosmos 2218 Rocket 4.2 10:54:54 39° NNE 10:57:15 62° E 11:03:39 10° SSE
Cosmos 1346 Rocket 4.0 10:56:03 26° WNW 10:57:40 37° WSW 11:01:28 10° S
Cosmos 2150 Rocket 4.1 10:53:30 10° SSW 10:58:43 68° ESE 11:00:17 44° NE
Meteor 1-5 Rocket 4.5 10:53:06 10° SSW 10:58:58 68° W 11:01:14 39° NNW
Nimbus 7 Rocket 4.3 10:57:03 42° NNE 10:59:14 88° WNW 11:05:15 10° SSW
USA 307 3.4 10:56:26 10° WSW 11:00:24 53° SSE 11:02:30 25° E
Cosmos 1842 Rocket 4.2 10:58:59 33° NW 11:00:35 50° WSW 11:04:57 10° S
Sich 1 3.1 10:56:27 10° S 11:00:59 71° ESE 11:01:41 59° NE
Cosmos 2366 rocket 4.1 10:59:31 40° NNE 11:01:48 66° E 11:08:10 10° SSE
Cosmos 1743 Rocket 3.6 11:00:09 10° SSW 11:04:42 76° W 11:05:29 59° NNW
Cosmos 2278 Rocket 2.9 11:05:05 35° ENE 11:05:41 35° ENE 11:10:50 10° SE
Cosmos 864 Rocket 4.5 11:04:06 42° NNE 11:06:15 69° E 11:12:28 10° SSE
USA 215 3.2 11:00:46 10° ESE 11:07:25 89° NNE 11:14:02 10° WNW
H-2A R/B 3.6 11:07:00 55° NW 11:07:31 61° WNW 11:11:41 10° SSW
Cosmos 1570 Rocket 3.9 11:06:06 43° NNW 11:07:55 89° W 11:13:16 10° SSE
CZ-4C R/B 2.6 11:05:05 10° SW 11:10:06 37° WNW 11:10:40 35° NW
Cosmos 1833 Rocket 2.6 11:07:45 10° SSW 11:13:29 84° WNW 11:15:08 49° NNE
ERS-1 Rocket 4.1 11:12:19 10° S 11:17:04 40° WSW 11:20:00 21° WNW
Meteor 1-27 Rocket 4.3 11:23:09 37° NE 11:24:26 43° E 11:29:46 10° SSE
Cosmos 2341 Rocket 4.3 11:23:14 34° NNW 11:26:09 66° WSW 11:32:33 10° S
USA 306 2.9 11:23:13 10° WSW 11:27:16 72° SSE 11:27:49 61° ESE
ATLAS 3B R/B 2.4 11:25:59 10° SW 11:32:33 79° NW 11:34:42 44° NNE
Cosmos 1242 Rocket 3.1 11:31:06 10° SSW 11:34:14 51° WSW 11:34:14 51° WSW
Cosmos 1328 Rocket 4.1 11:34:41 43° E 11:34:49 43° E 11:38:59 10° SSE
Meteor 1-10 Rocket 4.3 11:37:52 48° N 11:39:41 85° E 11:45:42 10° SSE
Cosmos 1470 Rocket 4.3 11:35:25 10° S 11:39:44 43° ESE 11:40:26 40° E
Cosmos 1151 Rocket 2.9 11:39:34 76° NNE 11:39:53 84° E 11:44:19 10° S
USA 308 2.9 11:36:17 10° WSW 11:40:19 72° SSE 11:40:46 64° ESE
USA 267 3.5 11:42:06 41° N 11:43:34 48° NW 11:49:56 10° WSW
Cosmos 1536 2.7 11:44:05 10° S 11:48:08 87° WSW 11:48:08 87° WSW
Cosmos 2123 Rocket 4.5 11:46:31 10° S 11:52:47 53° ESE 11:55:19 34° NE
